Location: Baia de Cri?
(46.1667°N, 22.7167°E)
Time: 08:43:55
(UTC+00:00)

SeaSat 1 - Pass Details

Date: 15 January 2026
Orbit: 737 x 739 km, 108.0° (Epoch: 10 February)

Event Time Altitude Azimuth Distance (km) Brightness Sun altitude
Rises 04:25:08 0° 32° (NNE) 3,184 6.0 -17.3°
Reaches altitude 10° 04:27:28 10° 37° (NE) 2,256 5.2 -16.9°
Maximum altitude 04:32:15 51° 114° (ESE) 933 3.4 -16.1°
Drops below altitude 10° 04:36:59 10° 190° (S) 2,241 5.0 -15.3°
Sets 04:39:17 0° 195° (SSW) 3,160 5.7 -14.9°
